Time,TemperatureF,DewpointF,PressureIn,WindDirection,WindDirectionDegrees,WindSpeedMPH,WindSpeedGustMPH,Humidity,HourlyPrecipIn,Conditions,Clouds,dailyrainin,SoftwareType,DateUTC
2013-11-13 00:14:00,21.1,14.0,30.46,WSW,238,4.0,4.0,75,0.00,,,0.00,weatherlink.com 1.10,2013-11-13 06:14:00,
2013-11-13 00:29:00,21.2,14.0,30.45,SW,233,1.0,5.0,74,0.00,,,0.00,weatherlink.com 1.10,2013-11-13 06:29:00,
2013-11-13 00:44:00,21.3,14.0,30.45,SE,134,1.0,5.0,74,0.00,,,0.00,weatherlink.com 1.10,2013-11-13 06:44:00,
2013-11-13 00:59:00,21.1,14.0,30.43,SE,131,2.0,5.0,74,0.00,,,0.00,weatherlink.com 1.10,2013-11-13 06:59:00,
2013-11-13 01:14:00,21.4,14.0,30.42,SSE,150,3.0,6.0,73,0.00,,,0.00,weatherlink.com 1.10,2013-11-13 07:14:00,
2013-11-13 01:30:00,21.7,14.0,30.41,SSE,161,0.0,6.0,73,0.00,,,0.00,weatherlink.com 1.10,2013-11-13 07:30:00,
2013-11-13 01:45:00,21.9,14.0,30.40,South,169,0.0,6.0,72,0.00,,,0.00,weatherlink.com 1.10,2013-11-13 07:45:00,
2013-11-13 02:00:00,21.9,14.0,30.39,SSE,154,3.0,5.0,71,0.00,,,0.00,weatherlink.com 1.10,2013-11-13 08:00:00,
2013-11-13 02:15:00,22.1,14.0,30.38,SE,138,3.0,5.0,71,0.00,,,0.00,weatherlink.com 1.10,2013-11-13 08:15:00,
2013-11-13 02:30:00,22.2,14.0,30.37,SE,143,3.0,5.0,70,0.00,,,0.00,weatherlink.com 1.10,2013-11-13 08:30:00,
2013-11-13 02:45:00,22.3,14.0,30.37,SE,129,2.0,6.0,70,0.00,,,0.00,weatherlink.com 1.10,2013-11-13 08:45:00,
2013-11-13 03:00:00,22.3,14.0,30.36,SSW,200,1.0,7.0,70,0.00,,,0.00,weatherlink.com 1.10,2013-11-13 09:00:00,
2013-11-13 03:15:00,22.4,14.0,30.34,SE,143,2.0,6.0,69,0.00,,,0.00,weatherlink.com 1.10,2013-11-13 09:15:00,
2013-11-13 03:30:00,22.5,14.0,30.34,ESE,122,2.0,6.0,69,0.00,,,0.00,weatherlink.com 1.10,2013-11-13 09:30:00,
2013-11-13 03:45:00,22.5,14.0,30.33,SE,126,1.0,6.0,69,0.00,,,0.00,weatherlink.com 1.10,2013-11-13 09:45:00,
2013-11-13 04:00:00,22.7,14.0,30.32,SSE,159,3.0,7.0,69,0.00,,,0.00,weatherlink.com 1.10,2013-11-13 10:00:00,
2013-11-13 04:15:00,22.8,14.0,30.30,ESE,117,3.0,8.0,69,0.00,,,0.00,weatherlink.com 1.10,2013-11-13 10:15:00,
2013-11-13 04:30:00,22.9,14.0,30.30,South,191,2.0,7.0,68,0.00,,,0.00,weatherlink.com 1.10,2013-11-13 10:30:00,
2013-11-13 04:45:00,23.1,14.0,30.29,SSW,203,2.0,7.0,68,0.00,,,0.00,weatherlink.com 1.10,2013-11-13 10:45:00,
2013-11-13 05:00:00,23.4,14.0,30.27,SSE,155,6.0,10.0,68,0.00,,,0.00,weatherlink.com 1.10,2013-11-13 11:00:00,
2013-11-13 05:15:00,23.8,14.0,30.25,SE,144,5.0,11.0,67,0.00,,,0.00,weatherlink.com 1.10,2013-11-13 11:15:00,
2013-11-13 05:30:00,23.9,15.0,30.25,SSE,166,3.0,11.0,68,0.00,,,0.00,weatherlink.com 1.10,2013-11-13 11:30:00,
2013-11-13 05:45:00,24.2,15.0,30.24,SE,134,5.0,10.0,68,0.00,,,0.00,weatherlink.com 1.10,2013-11-13 11:45:00,
2013-11-13 06:00:00,24.5,15.0,30.23,SE,146,4.0,9.0,68,0.00,,,0.00,weatherlink.com 1.10,2013-11-13 12:00:00,
2013-11-13 06:15:00,24.9,16.0,30.22,South,176,3.0,9.0,68,0.00,,,0.00,weatherlink.com 1.10,2013-11-13 12:15:00,
2013-11-13 06:30:00,25.2,16.0,30.21,SE,141,2.0,10.0,68,0.00,,,0.00,weatherlink.com 1.10,2013-11-13 12:30:00,
2013-11-13 06:46:00,25.3,16.0,30.20,SSE,150,2.0,7.0,69,0.00,,,0.00,weatherlink.com 1.10,2013-11-13 12:46:00,
2013-11-13 07:01:00,25.3,16.0,30.20,SW,220,2.0,8.0,69,0.00,,,0.00,weatherlink.com 1.10,2013-11-13 13:01:00,
2013-11-13 07:16:00,25.2,17.0,30.19,SSE,150,1.0,6.0,70,0.00,,,0.00,weatherlink.com 1.10,2013-11-13 13:16:00,
2013-11-13 07:31:00,25.5,17.0,30.19,SSW,200,2.0,7.0,71,0.00,,,0.00,weatherlink.com 1.10,2013-11-13 13:31:00,
2013-11-13 07:46:00,26.4,17.0,30.18,SSE,164,6.0,7.0,69,0.00,,,0.00,weatherlink.com 1.10,2013-11-13 13:46:00,
2013-11-13 08:01:00,27.5,18.0,30.17,SW,214,1.0,8.0,68,0.00,,,0.00,weatherlink.com 1.10,2013-11-13 14:01:00,
2013-11-13 08:16:00,28.8,19.0,30.17,SSW,212,7.0,10.0,67,0.00,,,0.00,weatherlink.com 1.10,2013-11-13 14:16:00,
2013-11-13 08:31:00,30.0,19.0,30.16,South,176,3.0,14.0,65,0.00,,,0.00,weatherlink.com 1.10,2013-11-13 14:31:00,
2013-11-13 08:46:00,30.7,20.0,30.15,SW,219,10.0,11.0,64,0.00,,,0.00,weatherlink.com 1.10,2013-11-13 14:46:00,
2013-11-13 09:01:00,31.7,20.0,30.14,SE,126,5.0,14.0,63,0.00,,,0.00,weatherlink.com 1.10,2013-11-13 15:01:00,
2013-11-13 09:16:00,32.7,21.0,30.14,SSE,153,6.0,10.0,62,0.00,,,0.00,weatherlink.com 1.10,2013-11-13 15:16:00,
2013-11-13 09:31:00,33.7,21.0,30.13,SSE,156,3.0,11.0,60,0.00,,,0.00,weatherlink.com 1.10,2013-11-13 15:31:00,
2013-11-13 09:46:00,34.6,22.0,30.12,South,170,9.0,12.0,60,0.00,,,0.00,weatherlink.com 1.10,2013-11-13 15:46:00,
2013-11-13 10:01:00,35.5,22.0,30.11,SSW,205,3.0,15.0,58,0.00,,,0.00,weatherlink.com 1.10,2013-11-13 16:01:00,
2013-11-13 10:16:00,36.3,23.0,30.10,SSW,206,3.0,15.0,58,0.00,,,0.00,weatherlink.com 1.10,2013-11-13 16:16:00,
2013-11-13 10:31:00,37.3,23.0,30.09,South,188,9.0,17.0,57,0.00,,,0.00,weatherlink.com 1.10,2013-11-13 16:31:00,
2013-11-13 10:46:00,38.6,24.0,30.06,SE,131,6.0,17.0,56,0.00,,,0.00,weatherlink.com 1.10,2013-11-13 16:46:00,
2013-11-13 11:01:00,39.7,24.0,30.05,South,172,4.0,14.0,54,0.00,,,0.00,weatherlink.com 1.10,2013-11-13 17:01:00,
2013-11-13 11:17:00,41.5,25.0,30.04,ESE,122,7.0,12.0,52,0.00,,,0.00,weatherlink.com 1.10,2013-11-13 17:17:00,
2013-11-13 11:32:00,41.9,25.0,30.03,SW,228,6.0,15.0,52,0.00,,,0.00,weatherlink.com 1.10,2013-11-13 17:32:00,
2013-11-13 11:47:00,42.9,26.0,30.04,SW,229,4.0,13.0,51,0.00,,,0.00,weatherlink.com 1.10,2013-11-13 17:47:00,
2013-11-13 12:02:00,43.5,26.0,30.01,SW,230,4.0,15.0,50,0.00,,,0.00,weatherlink.com 1.10,2013-11-13 18:02:00,
2013-11-13 12:17:00,44.3,27.0,30.00,SSW,193,13.0,14.0,50,0.00,,,0.00,weatherlink.com 1.10,2013-11-13 18:17:00,
2013-11-13 12:32:00,45.2,27.0,30.00,SSE,160,6.0,14.0,49,0.00,,,0.00,weatherlink.com 1.10,2013-11-13 18:32:00,
2013-11-13 12:47:00,45.7,27.0,30.00,SSW,208,7.0,15.0,49,0.00,,,0.00,weatherlink.com 1.10,2013-11-13 18:47:00,
2013-11-13 13:02:00,46.5,28.0,29.98,SW,230,7.0,13.0,48,0.00,,,0.00,weatherlink.com 1.10,2013-11-13 19:02:00,
2013-11-13 13:17:00,47.1,28.0,29.98,WSW,248,3.0,14.0,48,0.00,,,0.00,weatherlink.com 1.10,2013-11-13 19:17:00,
2013-11-13 13:32:00,47.3,28.0,29.96,SE,140,8.0,14.0,48,0.00,,,0.00,weatherlink.com 1.10,2013-11-13 19:32:00,
2013-11-13 13:47:00,47.6,29.0,29.96,SSE,155,7.0,14.0,48,0.00,,,0.00,weatherlink.com 1.10,2013-11-13 19:47:00,
2013-11-13 14:02:00,48.0,29.0,29.95,SW,217,8.0,15.0,49,0.00,,,0.00,weatherlink.com 1.10,2013-11-13 20:02:00,
2013-11-13 14:17:00,48.7,30.0,29.94,East,84,3.0,16.0,49,0.00,,,0.00,weatherlink.com 1.10,2013-11-13 20:17:00,
2013-11-13 14:32:00,49.2,31.0,29.94,SW,233,3.0,16.0,49,0.00,,,0.00,weatherlink.com 1.10,2013-11-13 20:32:00,
2013-11-13 14:47:00,49.9,31.0,29.93,SSW,208,8.0,13.0,49,0.00,,,0.00,weatherlink.com 1.10,2013-11-13 20:47:00,
2013-11-13 15:02:00,50.4,32.0,29.92,ESE,120,5.0,13.0,49,0.00,,,0.00,weatherlink.com 1.10,2013-11-13 21:02:00,
2013-11-13 15:17:00,50.8,33.0,29.91,ESE,103,4.0,12.0,50,0.00,,,0.00,weatherlink.com 1.10,2013-11-13 21:17:00,
2013-11-13 15:32:00,50.8,33.0,29.90,SE,144,5.0,13.0,50,0.00,,,0.00,weatherlink.com 1.10,2013-11-13 21:32:00,
2013-11-13 15:47:00,50.9,33.0,29.92,SW,214,7.0,10.0,51,0.00,,,0.00,weatherlink.com 1.10,2013-11-13 21:47:00,
2013-11-13 16:02:00,50.7,33.0,29.92,WSW,253,2.0,8.0,52,0.00,,,0.00,weatherlink.com 1.10,2013-11-13 22:02:00,
2013-11-13 16:17:00,49.7,33.0,29.92,WSW,246,3.0,7.0,54,0.00,,,0.00,weatherlink.com 1.10,2013-11-13 22:17:00,
2013-11-13 16:32:00,48.9,34.0,29.92,WSW,240,0.0,3.0,56,0.00,,,0.00,weatherlink.com 1.10,2013-11-13 22:32:00,
2013-11-13 16:47:00,47.9,33.0,29.91,SSW,205,2.0,4.0,57,0.00,,,0.00,weatherlink.com 1.10,2013-11-13 22:47:00,
2013-11-13 17:02:00,48.1,34.0,29.91,SSW,193,1.0,7.0,58,0.00,,,0.00,weatherlink.com 1.10,2013-11-13 23:02:00,
2013-11-13 17:17:00,47.9,34.0,29.91,WSW,238,1.0,9.0,58,0.00,,,0.00,weatherlink.com 1.10,2013-11-13 23:17:00,
2013-11-13 17:32:00,47.7,34.0,29.91,SW,216,1.0,7.0,59,0.00,,,0.00,weatherlink.com 1.10,2013-11-13 23:32:00,
2013-11-13 17:47:00,47.2,34.0,29.91,WSW,245,0.0,4.0,60,0.00,,,0.00,weatherlink.com 1.10,2013-11-13 23:47:00,
2013-11-13 18:03:00,47.1,34.0,29.91,South,171,2.0,7.0,61,0.00,,,0.00,weatherlink.com 1.10,2013-11-14 00:03:00,
2013-11-13 18:18:00,47.0,34.0,29.90,West,262,5.0,7.0,61,0.00,,,0.00,weatherlink.com 1.10,2013-11-14 00:18:00,
2013-11-13 18:33:00,47.3,34.0,29.91,SSW,206,4.0,7.0,61,0.00,,,0.00,weatherlink.com 1.10,2013-11-14 00:33:00,
2013-11-13 18:48:00,47.1,34.0,29.91,SW,236,8.0,8.0,61,0.00,,,0.00,weatherlink.com 1.10,2013-11-14 00:48:00,
2013-11-13 19:03:00,47.1,34.0,29.91,West,260,2.0,7.0,60,0.00,,,0.00,weatherlink.com 1.10,2013-11-14 01:03:00,
2013-11-13 19:33:00,46.3,33.0,29.90,SW,228,3.0,7.0,61,0.00,,,0.00,weatherlink.com 1.10,2013-11-14 01:33:00,
2013-11-13 19:48:00,45.7,33.0,29.90,SSW,199,0.0,7.0,62,0.00,,,0.00,weatherlink.com 1.10,2013-11-14 01:48:00,
2013-11-13 20:03:00,45.0,33.0,29.89,SW,235,1.0,4.0,64,0.00,,,0.00,weatherlink.com 1.10,2013-11-14 02:03:00,
2013-11-13 20:18:00,44.9,33.0,29.89,SW,233,1.0,7.0,64,0.00,,,0.00,weatherlink.com 1.10,2013-11-14 02:18:00,
2013-11-13 20:33:00,44.3,33.0,29.89,SW,224,2.0,6.0,65,0.00,,,0.00,weatherlink.com 1.10,2013-11-14 02:33:00,
2013-11-13 20:48:00,43.9,33.0,29.89,SSE,153,3.0,8.0,66,0.00,,,0.00,weatherlink.com 1.10,2013-11-14 02:48:00,
2013-11-13 21:03:00,43.9,33.0,29.89,SW,220,1.0,8.0,65,0.00,,,0.00,weatherlink.com 1.10,2013-11-14 03:03:00,
2013-11-13 21:18:00,43.5,33.0,29.88,WSW,243,3.0,5.0,66,0.00,,,0.00,weatherlink.com 1.10,2013-11-14 03:18:00,
2013-11-13 21:33:00,43.1,33.0,29.89,SW,221,3.0,6.0,67,0.00,,,0.00,weatherlink.com 1.10,2013-11-14 03:33:00,
2013-11-13 21:48:00,42.5,33.0,29.89,SE,128,0.0,7.0,68,0.00,,,0.00,weatherlink.com 1.10,2013-11-14 03:48:00,
2013-11-13 22:03:00,41.9,32.0,29.89,SSW,205,0.0,4.0,69,0.00,,,0.00,weatherlink.com 1.10,2013-11-14 04:03:00,
2013-11-13 22:18:00,41.6,32.0,29.88,SW,227,0.0,4.0,70,0.00,,,0.00,weatherlink.com 1.10,2013-11-14 04:18:00,
2013-11-13 22:33:00,41.4,32.0,29.88,SSE,161,0.0,4.0,70,0.00,,,0.00,weatherlink.com 1.10,2013-11-14 04:33:00,
2013-11-13 22:48:00,40.5,32.0,29.88,WSW,242,0.0,3.0,72,0.00,,,0.00,weatherlink.com 1.10,2013-11-14 04:48:00,
2013-11-13 23:03:00,39.7,32.0,29.88,West,273,1.0,2.0,74,0.00,,,0.00,weatherlink.com 1.10,2013-11-14 05:03:00,
2013-11-13 23:18:00,39.3,32.0,29.87,SSW,211,0.0,2.0,75,0.00,,,0.00,weatherlink.com 1.10,2013-11-14 05:18:00,
2013-11-13 23:33:00,39.1,32.0,29.87,SSW,200,0.0,2.0,75,0.00,,,0.00,weatherlink.com 1.10,2013-11-14 05:33:00,
2013-11-13 23:48:00,38.3,31.0,29.87,SSW,209,0.0,0.0,76,0.00,,,0.00,weatherlink.com 1.10,2013-11-14 05:48:00,